Vertical_Velocity
-1 -1 -0 -1 -0 -1 -2 -1 -3 -2 -1 -1 -0 0 -1 -1 -1 -1 -1 -2 0 -2 -1 -2 -7 -2 -4 -0 -5 -5 -4 10 -1 1 5 1 0 1 2 -2 1 -2 1 -1 -1
0 -0 -0 -0 -1 -1 -1 -0 -1 -1 -1 0 -1 -2 -3 -2 -2 -2 -2 -2 -2 -2 0 -1 -3 -4 -2 -1 -4 -4 7 -2 -3 -3 -3 -2 -0 -0 -0 -2 -6 1 -1 -2 -1
-1 -2 -2 0 -1 -1 -1 -1 -1 -1 -1 -1 -2 -3 -1 -1 -1 -3 -2 -1 -1 -0 -2 -3 -3 -2 -1 -1 -3 1 -3 -1 -2 -1 -1 -2 -3 -1 0 -7 1 -1 -0 1 1
0 -1 0 -0 -1 -1 -1 -1 -1 -1 -1 -1 -1 -1 -1 -1 -5 -1 -1 -1 -1 -1 0 -3 -5 -2 -2 -1 0 -4 -2 -4 -3 -2 -1 -2 -2 -4 -1 -1 -0 1 -0 -2 -2
-2 -1 -1 -0 -0 -1 -1 -0 -0 -1 -1 -1 -1 -1 -1 -1 -1 -1 -1 -1 -1 -0 -1 -2 -2 -2 -0 -1 -2 -4 0 -1 0 0 0 -1 -2 -2 -2 1 -1 -3 -2 -3 -2
1 1 -1 -1 0 -1 -1 -1 -2 -1 -1 -1 -1 -1 -1 -3 -2 -1 -1 -1 -1 -1 -1 -1 -4 -3 -4 -1 -2 -2 -0 0 -1 -1 -1 -2 -3 2 -2 -1 -3 -3 -1 0 -0
-1 -2 -1 0 -0 0 -2 -1 -3 -2 -1 -2 -1 -1 -2 -1 -1 -0 0 -0 -0 -2 -2 -2 -2 -1 1 -2 -1 -2 -6 -8 -2 -6 -5 -3 1 -2 1 -3 -2 -0 -4 -1 -2
-0 -1 -0 -0 -1 -1 -1 -1 -2 -1 -1 -2 -2 -2 -2 -1 0 0 -2 -2 -1 -2 -2 -2 -1 -0 -3 -2 -4 -6 1 11 -1 0 -6 -2 -4 -8 -2 1 -1 -1 -1 -1 -2
0 1 -0 -0 -1 -1 -1 -2 -2 -2 -1 -1 -1 -2 -3 -1 2 -1 -0 -1 -2 -1 -2 -3 -2 -3 -6 -2 8 2 -0 -2 8 -2 -2 2 3 -7 1 0 -1 -2 1 -6 -4
-1 -1 -2 -2 -1 -2 -2 -0 -0 -1 -2 -2 -3 -1 0 -1 -1 -1 -2 -3 -2 -1 2 -0 -2 0 2 -5 -3 -4 -6 -5 5 -1 -2 -2 -2 -1 -3 2 0 -2 -2 0 -1
-1 -0 -1 -1 -2 -2 -2 -1 -1 -1 -2 -1 -1 -3 -1 -1 -3 -3 -3 -1 0 -6 -1 -1 -2 -3 -1 0 0 0 -1 3 4 -4 -2 -0 -2 -0 -5 -1 1 -1 -4 -1 -4
-1 -1 -1 -1 -1 -0 1 0 0 1 -0 0 -0 -1 -2 -2 -2 -2 -2 -4 -2 -1 -1 -2 -2 -2 -2 -3 -4 -0 2 -3 -5 1 3 4 3 -1 -7 1 -0 -1 -2 -3 -2
-0 -1 -1 -1 -1 -1 1 -1 -1 -1 1 -0 -1 -1 -3 -1 -2 -2 -1 -0 -2 -2 -1 -1 -1 -2 -1 -3 -3 -2 -1 0 2 -4 1 0 -1 -2 -3 -1 1 0 -1 -1 -1
-1 -1 -1 1 2 0 -1 -1 -1 -1 -2 -1 -2 -3 -4 -3 -1 -2 -3 -2 -4 -1 -2 -1 -1 -1 -1 -0 -0 -2 0 1 -2 -1 -2 1 -8 -5 -0 -2 -1 0 -1 -1 -1
-1 -1 -1 -0 0 -1 -2 -1 -1 -1 -2 -0 -1 -2 -2 -2 -3 -2 -2 -1 -2 -1 -2 -1 -0 -0 -2 -1 -1 -2 -3 1 -3 -0 -4 -2 1 -2 0 -5 -4 -2 1 -1 1
0 -1 -1 -0 -2 -1 -1 -1 -1 -2 -5 -2 -2 -1 -4 -1 -0 -2 -6 -3 -2 -0 -2 1 -1 -1 -1 1 -1 -3 -10 -1 2 0 0 1 1 -8 -2 3 1 -1 1 2 2
-1 -0 1 0 -2 -2 -1 -1 -1 -2 -1 -1 -2 -2 -1 -2 -3 -1 -3 -4 -6 -5 -3 0 -3 0 -1 -0 -2 0 -5 -3 -5 -2 -4 2 -1 -5 1 1 -2 -5 -3 -1 -0
-2 -1 -1 0 -1 -1 -1 -2 -2 -1 -1 -1 -1 -1 -1 -2 -1 -3 -1 -0 0 -0 -1 -0 -7 -2 -1 1 -2 -1 -2 0 0 0 -4 10 -5 -2 -1 -1 1 -1 -4 -2 -2
-1 -0 1 1 -1 -0 -0 -4 -2 0 -0 -1 -1 -3 -2 -3 1 -2 -3 -1 -0 -0 -4 -2 -1 -2 2 -1 1 1 -1 -0 -0 -2 8 -4 -4 -1 -2 2 0 -3 -3 -3 -2
-1 -2 -2 -2 -1 -1 -1 -2 -1 -1 -1 -2 -3 -1 -1 -2 -1 -2 -1 0 -1 -2 -1 -2 -7 0 -1 0 0 -1 0 -1 1 -0 -2 -5 2 1 2 -1 1 -0 -0 -3 -4
-3 -2 -2 -2 -0 -1 -1 0 1 0 0 1 -0 -1 -1 -0 1 -1 0 -1 -0 -3 -4 -0 -2 -4 0 -1 4 -1 -1 -1 -3 -2 1 0 -9 2 3 2 -1 -3 1 -1 -0
-3 -4 -1 -0 -2 -1 -1 -3 -3 -2 -2 -0 -1 -2 -2 -1 -3 -2 1 -1 -0 -0 -2 0 -0 -6 -1 -2 4 2 -1 1 3 2 2 8 -31 -9 -5 3 2 -0 -1 -3 -8
0 -1 -2 -2 -2 -3 -1 -0 -0 -0 -0 -1 0 1 1 -0 -3 -4 -2 -0 2 3 2 -3 5 -5 1 2 -1 0 -1 -2 -2 5 -5 5 -20 4 4 15 7 0 -0 1 -4
-1 -3 1 -0 -0 -2 -1 -1 -2 -1 -0 1 -0 -1 -3 -2 -1 -1 -1 -2 0 -4 2 3 -1 -4 -7 1 3 -4 5 8 11 3 -4 -30 -12 -11 6 5 -7 5 5 5 2
2 -2 -2 -4 -1 -2 -0 -2 -2 -0 -1 -0 -4 0 -2 -4 -2 -6 -4 3 -3 -6 -3 3 -2 4 -9 4 -2 -5 -10 14 2 -2 6 -15 -8 -2 13 2 3 1 0 4 3
-2 1 0 -2 -1 0 -0 -2 -0 -2 1 -5 2 -2 1 -3 2 -4 8 9 3 -1 4 -0 -5 1 -13 0 -3 -6 -6 12 2 -1 -4 4 -16 17 2 1 0 -2 -4 -2 1
1 0 1 -3 0 -3 -8 -3 -3 1 -2 -0 -3 -1 -2 -3 -3 -1 1 5 1 1 6 10 2 -1 -15 5 -2 -16 -1 2 3 1 8 0 8 10 7 6 -0 -2 1 -3 0
Height
3166 3164 3161 3159 3157 3155 3153 3152 3151 3151 3152 3152 3152 3151 3151 3150 3149 3148 3146 3145 3142 3140 3138 3136 3133 3133 3131 3132 3133 3133 3135 3136 3136 3137 3135 3134 3133 3132 3132 3129 3130 3130 3130 3130 3128
3166 3164 3162 3160 3158 3156 3154 3152 3151 3151 3152 3152 3152 3152 3152 3151 3150 3148 3147 3145 3143 3141 3140 3137 3135 3133 3132 3133 3133 3133 3136 3136 3135 3134 3134 3132 3132 3131 3131 3129 3127 3129 3128 3127 3125
3167 3164 3162 3160 3158 3157 3155 3153 3152 3152 3152 3153 3153 3153 3152 3151 3151 3149 3147 3146 3144 3142 3140 3138 3135 3134 3133 3133 3133 3132 3133 3132 3132 3132 3131 3130 3129 3129 3129 3127 3128 3127 3125 3123 3121
3168 3165 3163 3161 3158 3156 3155 3154 3153 3153 3153 3154 3154 3154 3153 3152 3153 3150 3149 3147 3145 3143 3141 3138 3136 3135 3134 3134 3134 3133 3133 3132 3132 3131 3130 3128 3127 3126 3128 3128 3126 3124 3123 3121 3118
3169 3167 3164 3161 3159 3156 3155 3154 3153 3154 3154 3155 3155 3154 3154 3153 3152 3151 3149 3147 3145 3143 3141 3138 3137 3136 3135 3135 3135 3133 3132 3131 3131 3130 3128 3127 3126 3125 3126 3125 3123 3122 3121 3118 3115
3171 3168 3166 3163 3160 3158 3156 3155 3154 3155 3156 3156 3156 3156 3155 3154 3153 3151 3150 3148 3146 3143 3141 3139 3138 3137 3135 3134 3134 3133 3132 3131 3131 3130 3129 3128 3125 3124 3123 3122 3121 3119 3117 3115 3111
3174 3171 3168 3164 3162 3160 3158 3157 3156 3156 3157 3157 3157 3156 3156 3156 3153 3152 3150 3148 3146 3144 3142 3139 3138 3137 3135 3134 3134 3132 3131 3130 3129 3129 3127 3125 3124 3122 3122 3120 3118 3117 3114 3112 3110
3175 3173 3170 3167 3164 3162 3161 3160 3159 3159 3159 3159 3158 3157 3157 3155 3154 3152 3150 3148 3146 3143 3142 3140 3139 3138 3137 3136 3134 3132 3132 3132 3128 3127 3125 3125 3122 3120 3120 3119 3116 3115 3113 3110 3108
3177 3175 3172 3169 3167 3165 3164 3162 3162 3161 3160 3160 3159 3158 3157 3156 3155 3152 3150 3148 3146 3144 3142 3140 3139 3137 3136 3135 3135 3134 3133 3133 3131 3127 3124 3124 3120 3117 3116 3116 3114 3112 3110 3108 3106
3178 3176 3174 3172 3169 3168 3166 3164 3163 3162 3162 3161 3160 3161 3159 3158 3155 3153 3151 3148 3146 3144 3143 3141 3139 3138 3137 3135 3136 3134 3133 3132 3131 3127 3123 3121 3116 3115 3111 3111 3110 3108 3106 3106 3104
3180 3178 3176 3174 3171 3169 3167 3165 3166 3165 3163 3162 3161 3160 3159 3158 3156 3154 3151 3149 3146 3143 3143 3142 3142 3140 3139 3138 3137 3135 3134 3132 3129 3125 3121 3116 3113 3113 3110 3108 3107 3104 3103 3103 3102
3180 3179 3177 3175 3173 3170 3167 3165 3164 3165 3164 3162 3162 3160 3159 3157 3156 3154 3152 3150 3147 3145 3143 3143 3142 3141 3140 3138 3136 3135 3134 3131 3126 3122 3118 3113 3109 3109 3107 3106 3104 3102 3101 3099 3099
3180 3179 3177 3175 3172 3170 3167 3165 3164 3163 3164 3164 3162 3161 3160 3158 3155 3154 3152 3150 3147 3146 3144 3143 3143 3140 3138 3137 3135 3133 3132 3128 3125 3118 3116 3113 3109 3108 3107 3105 3103 3101 3099 3097 3096
3180 3178 3177 3174 3174 3170 3167 3165 3163 3163 3165 3166 3164 3162 3160 3157 3157 3154 3151 3151 3148 3146 3144 3144 3142 3140 3139 3138 3136 3133 3130 3126 3123 3120 3119 3117 3114 3107 3106 3105 3102 3100 3097 3096 3095
3179 3178 3176 3174 3172 3170 3169 3165 3163 3164 3166 3168 3164 3162 3160 3160 3158 3155 3152 3150 3148 3147 3147 3145 3141 3139 3139 3138 3136 3133 3128 3123 3121 3120 3119 3115 3114 3105 3103 3101 3099 3098 3097 3095 3094
3179 3178 3176 3174 3172 3170 3167 3165 3165 3167 3166 3166 3165 3162 3160 3158 3156 3154 3152 3150 3148 3146 3144 3143 3141 3140 3138 3137 3134 3130 3125 3120 3119 3120 3119 3114 3115 3105 3102 3102 3099 3097 3096 3095 3093
3178 3176 3175 3174 3172 3169 3167 3166 3167 3165 3168 3167 3164 3161 3160 3158 3155 3153 3151 3149 3148 3146 3145 3143 3140 3139 3137 3135 3133 3131 3126 3122 3122 3120 3118 3114 3114 3103 3103 3102 3100 3097 3096 3094 3092
3177 3176 3175 3173 3171 3168 3167 3167 3166 3167 3166 3165 3163 3161 3160 3157 3156 3153 3151 3149 3148 3147 3145 3144 3140 3139 3137 3136 3133 3129 3129 3129 3130 3123 3117 3114 3109 3103 3102 3101 3100 3097 3095 3094 3091
3176 3175 3174 3172 3170 3168 3168 3166 3167 3166 3166 3164 3162 3161 3160 3157 3156 3153 3151 3150 3149 3148 3148 3143 3141 3139 3136 3134 3134 3130 3129 3129 3126 3120 3118 3108 3104 3102 3100 3100 3098 3096 3093 3091 3089
3175 3174 3173 3171 3170 3169 3168 3167 3166 3165 3164 3163 3162 3161 3159 3157 3156 3153 3151 3151 3149 3149 3147 3145 3140 3136 3134 3132 3129 3129 3129 3128 3127 3123 3116 3104 3102 3101 3098 3097 3097 3094 3091 3087 3085
3173 3172 3172 3170 3169 3168 3167 3166 3165 3164 3163 3163 3161 3160 3159 3157 3155 3153 3152 3151 3147 3146 3145 3143 3142 3139 3133 3131 3128 3128 3127 3127 3127 3124 3121 3112 3102 3098 3098 3096 3092 3089 3087 3084 3080
3171 3171 3170 3169 3170 3167 3166 3166 3165 3164 3163 3162 3160 3158 3157 3156 3154 3153 3152 3149 3147 3144 3141 3141 3138 3134 3132 3128 3127 3125 3126 3126 3126 3123 3119 3116 3097 3095 3094 3093 3089 3085 3080 3074 3072
3168 3168 3167 3167 3167 3166 3165 3165 3164 3162 3161 3160 3159 3157 3156 3154 3154 3151 3149 3148 3145 3143 3140 3137 3135 3132 3127 3127 3127 3124 3123 3122 3122 3120 3113 3116 3096 3092 3091 3091 3085 3080 3076 3072 3067
3166 3165 3165 3164 3164 3164 3163 3162 3162 3161 3159 3157 3156 3155 3153 3152 3151 3148 3145 3142 3143 3141 3138 3134 3130 3130 3128 3124 3124 3119 3116 3117 3118 3112 3105 3099 3088 3088 3088 3087 3081 3079 3076 3071 3064
3163 3162 3162 3161 3162 3161 3161 3160 3159 3157 3156 3155 3153 3152 3150 3148 3146 3143 3141 3140 3137 3134 3133 3131 3124 3122 3119 3117 3116 3111 3106 3104 3103 3100 3101 3084 3088 3082 3084 3079 3074 3071 3068 3065 3060
3159 3159 3158 3157 3157 3157 3156 3156 3155 3154 3153 3151 3150 3147 3146 3144 3143 3141 3138 3136 3134 3130 3128 3123 3120 3116 3112 3111 3108 3101 3095 3092 3090 3090 3088 3083 3079 3080 3076 3072 3069 3066 3062 3057 3054
3153 3154 3153 3152 3152 3152 3152 3151 3151 3150 3148 3146 3145 3143 3141 3139 3136 3133 3131 3128 3127 3126 3124 3118 3117 3116 3106 3107 3103 3096 3087 3087 3085 3085 3084 3080 3079 3075 3071 3067 3062 3059 3055 3050 3046